TITAN 3C TRANSTAGE DEB, 1829

Orbit data source: Space-Track

TITAN 3C TRANSTAGE DEB, 1829 is space debris in LEO originally from a launch on Fri, 15 Oct 1965 UTC launched from the Air Force Eastern Test Range (AFETR). Debris objects in space refer to the collection of defunct objects orbiting the Earth. Examples of debris include non-operational satellites, rocket bodies, and fragments generated from explosions, collisions, or faulty payload assembly.

Loading next visibility...
Identifier
1829, 1965-082DU
Orbit
LEO
Country
Flag of USUS
Related business
Manufacturer
Unknown
Mission
Spacecraft
Bus & Motor
Unknown
Mass
Unknown
Launch date (UTC)
1965-10-15 (60 years ago)
Launch vehicle
Unknown
Launch site
Air Force Eastern Test Range (AFETR)
Object type
Payload
Rocket body
Debris
Shape & HBR
Unknown shape, 0.1 m
Radar Cross Section
Small (<0.1 m²)

Expand to show TLE details & history
Last TLE update: 1 day ago

TLE from 1 day ago
0 TITAN 3C TRANSTAGE DEB
1  1829U 65082DU  25304.57222549  .00003975  00000-0  41719-3 0  9990
2  1829  32.2891 256.9750 0023870  99.9461 260.3890 14.88057353186422
Epoch: 2025-10-31T13:44Z
TLE epoch observation values (Epoch: 2025-10-31T13:44:00.282Z)
Latitude
-0°
Longitude
10.85909°
Altitude
605.476 km
Speed
7.558 km/s
True Right ascension
17h 07m 53s
True Declination
0° 00' 00"
Sunlit
Object was in daylight at epoch
Visualization orbit readout
Latitude
Unknown
Longitude
Unknown
Altitude
Unknown
Speed
Unknown
Apparent Right ascension
Unknown
Apparent Declination
Unknown
Sunlit
N/A
Visualization observer readout
Local Sidereal Time
15:22:14
Azimuth
Unknown
Elevation
Unknown
Doppler factor
Unknown
Orbital elements
Apogee altitude
624.294 km
Perigee altitude
590.944 km
Semi-major axis
6,985.756 km
Eccentricity
0.00239
Inclination
32.2891°
RAAN
256.975°
Arg. of periapsis
99.9461°
True anomaly
260.11944°
Mean anomaly
260.389°
Eccentric anomaly
260.25421°
Mean motion
3.71726 °/min
Orbital period
96.85 mins
BSTAR
0.00041719

Documentation

Showing up to 5 results
|